sat.trackr.live / text

‹ back to catalog

2025-313M

NORAD 67259 · 2025-313M

PAYLOAD ACTIVE UNKNOWN

§ Identity

Operator
Country
TBD
Launch date
2025-12-28
Launch site
VOSTO
Launch vehicle
Mass (kg)
RCS (m²)

External: N2YO · Heavens-Above · Gunter

§ Orbital elements

Epoch: 2026-05-24T03:46:46.734240Z

Period
94.50 min
Inclination
97.3973°
Eccentricity
0.0015941
Mean motion
15.23881454 rev/d
Perigee alt
483.2 km
Apogee alt
505.1 km
Semi-major
6,872.3 km
B*
4.4613e-4
RAAN
219.3868°
Arg perigee
88.6934°
Mean anomaly
271.6129°
Rev number
2,230

§ Raw data

2025-313M1 67259U 25313M   26144.15748535  .00010740  00000+0  44613-3 0  99902 67259  97.3973 219.3868 0015941  88.6934 271.6129 15.23881454 22300

JSON: /api/v1/satellites/67259 · /tle

For live sub-satellite position, see the globe view (requires WebGL).

§ Visibility from observer

Set your observer location to see the next 7 days of passes ≥ 10°. The values pass through the URL so the page stays shareable.

No JS? Fill the form by hand. The geolocation button needs JavaScript.